[TLELIST] Archives

 

[TLELIST] Current TLEs

September 3rd 2026 PDT

0 HST 1 20580U 90037B 26246.22689652 .00003885 00000-0 11655-3 0 9999 2 20580 28.4725 266.8765 0001484 288.7958 71.2477 15.31541406800544 0 ISS (ZARYA) 1 25544U 98067A 26246.17593850 .00004078 00000-0 82215-4 0 9999 2 25544 51.6312 274.0958 0005015 102.3118 257.8432 15.48977273583844 0 CXO 1 25867U 99040B 26246.06733144 .00000969 00000-0 00000-0 0 9992 2 25867 57.2648 114.5834 7721649 309.5325 0.4326 0.37807753 17611 ...Continue Reading

[TLELIST] Current TLEs

September 2nd 2026 PDT

0 HST 1 20580U 90037B 26244.46751490 .00004336 00000-0 13097-3 0 9997 2 20580 28.4726 278.9162 0001512 266.0222 94.0201 15.31527566800274 0 ISS (ZARYA) 1 25544U 98067A 26245.14367806 .00004185 00000-0 84174-4 0 9990 2 25544 51.6311 279.2032 0005052 98.7315 261.4246 15.48967297583682 0 CXO 1 25867U 99040B 26246.06733144 .00000969 00000-0 00000-0 0 9992 2 25867 57.2648 114.5834 7721649 309.5325 0.4326 0.37807753 17611 ...Continue Reading

[TLELIST] Current TLEs

September 1st 2026 PDT

0 HST 1 20580U 90037B 26244.27202698 .00004311 00000-0 13016-3 0 9991 2 20580 28.4726 280.2541 0001522 263.5904 96.4519 15.31525928800246 0 ISS (ZARYA) 1 25544U 98067A 26244.17592806 .00004207 00000-0 84620-4 0 9993 2 25544 51.6312 283.9914 0005055 95.2836 264.8730 15.48956502583533 0 CXO 1 25867U 99040B 26246.06733144 .00000969 00000-0 00000-0 0 9992 2 25867 57.2648 114.5834 7721649 309.5325 0.4326 0.37807753 17611 ...Continue Reading

[TLELIST] Current TLEs

August 31st 2026 PDT

0 HST 1 20580U 90037B 26242.83844338 .00005591 00000-0 17102-3 0 9995 2 20580 28.4726 290.0642 0001561 244.0475 115.9960 15.31512856800026 0 ISS (ZARYA) 1 25544U 98067A 26243.14365401 .00005331 00000-0 10505-3 0 9997 2 25544 51.6314 289.0986 0005054 92.1995 267.9573 15.48946173583376 0 CXO 1 25867U 99040B 26246.06733144 .00000969 00000-0 00000-0 0 9992 2 25867 57.2648 114.5834 7721649 309.5325 0.4326 0.37807753 17611 ...Continue Reading

[TLELIST] Current TLEs

August 30th 2026 PDT

0 HST 1 20580U 90037B 26241.86099220 .00006182 00000-0 18992-3 0 9994 2 20580 28.4729 296.7524 0001603 231.7887 128.2565 15.31502187799872 0 ISS (ZARYA) 1 25544U 98067A 26242.17588970 .00005780 00000-0 11323-3 0 9994 2 25544 51.6316 293.8866 0005036 89.0373 271.1192 15.48935381583220 0 CXO 1 25867U 99040B 26243.42351855 .00001012 00000-0 00000+0 0 9993 2 25867 57.2067 114.6885 7725387 309.5180 0.6064 0.37807690 17605 ...Continue Reading

[TLELIST] Current TLEs

August 29th 2026 PDT

0 HST 1 20580U 90037B 26240.55771250 .00005820 00000-0 17845-3 0 9993 2 20580 28.4732 305.6703 0001660 216.3861 143.6623 15.31487121799673 0 ISS (ZARYA) 1 25544U 98067A 26241.27263584 .00006962 00000-0 13475-3 0 9998 2 25544 51.6317 298.3548 0005039 86.9077 273.2487 15.48926826583086 0 CXO 1 25867U 99040B 26243.42351855 .00001012 00000-0 00000+0 0 9993 2 25867 57.2067 114.6885 7725387 309.5180 0.6064 0.37807690 17605 ...Continue Reading

[TLELIST] Current TLEs

August 28th 2026 PDT

0 HST 1 20580U 90037B 26239.58024444 .00006692 00000-0 20632-3 0 9996 2 20580 28.4733 312.3584 0001731 204.2467 155.8048 15.31478940799522 0 ISS (ZARYA) 1 25544U 98067A 26239.53072227 .00008959 00000-0 16667-3 0 9990 2 25544 51.6325 306.9725 0007720 89.1136 271.0737 15.49656235582817 0 CXO 1 25867U 99040B 26243.42264188 .00001012 00000-0 00000-0 0 9996 2 25867 57.2067 114.6885 7725389 309.5180 0.4871 0.37807663 17601 ...Continue Reading

[TLELIST] Current TLEs

August 27th 2026 PDT

0 HST 1 20580U 90037B 26238.60277045 .00006557 00000-0 20207-3 0 9993 2 20580 28.4735 319.0462 0001796 193.1624 166.8925 15.31467877799371 0 ISS (ZARYA) 1 25544U 98067A 26239.14379413 .00008717 00000-0 16243-3 0 9996 2 25544 51.6326 308.8886 0007697 87.8986 272.2885 15.49649978582754 0 CXO 1 25867U 99040B 26240.77966955 .00001030 00000-0 00000+0 0 9991 2 25867 57.1441 114.7944 7726724 309.5210 0.7071 0.37801396 17591 ...Continue Reading

[TLELIST] Current TLEs

August 26th 2026 PDT

0 HST 1 20580U 90037B 26238.53760525 .00006459 00000-0 19896-3 0 9998 2 20580 28.4735 319.4920 0001801 192.3705 167.6847 15.31466992799360 0 ISS (ZARYA) 1 25544U 98067A 26238.49891027 .00008646 00000-0 16123-3 0 9991 2 25544 51.6328 312.0820 0007754 85.9348 274.2526 15.49640156582658 0 CXO 1 25867U 99040B 26240.77966955 .00001030 00000-0 00000+0 0 9991 2 25867 57.1441 114.7944 7726724 309.5210 0.7071 0.37801396 17591 ...Continue Reading

[TLELIST] Current TLEs

August 20th 2026 PDT

0 HST 1 20580U 90037B 26231.76025349 .00006233 00000-0 19223-3 0 9998 2 20580 28.4735 5.8570 0002250 121.4675 238.6142 15.31387257798323 0 ISS (ZARYA) 1 25544U 98067A 26232.17880947 .00009753 00000-0 18154-3 0 9995 2 25544 51.6332 343.3775 0007674 65.0551 295.1235 15.49524101581676 0 CXO 1 25867U 99040B 26232.84649600 .00000785 00000-0 00000-0 0 9992 2 25867 57.0423 114.9727 7732957 309.6658 0.5706 0.37799654 17566 ...Continue Reading
  • This mailing list is a public mailing list - anyone may join or leave, at any time.
  • This mailing list is announce-only.

International Space Station (ISS) / Hubble Space Telescope (HST) / Chandra X-Ray Observatory Orbital Data via EMAIL

Privacy Policy:

Private list